Terminal Aerodrome Forecast
Issued by NWS Mobile, AL

Home | Current Version | Previous Version | Text Only | Print | Product List | Glossary On
Versions: 1 2 3 4 5 6 7 8 9 10 11 12 13 14 15 16 17 18 19 20 21 22 23 24 25 26 27 28 29 30 31 32
000
FTUS44 KMOB 042346
TAFPNS
TAF
KPNS 042346Z 0500/0524 18009KT P6SM FEW030 SCT100
     FM050300 VRB03KT P6SM FEW100
     FM051000 VRB04KT P6SM FEW020
     FM051400 17009KT P6SM SCT035 SCT100=

USA.gov is the U.S. government's official web portal to all federal, state and local government web resources and services.